Location: Ladrillo (historical)
(32.8195°N, 117.2231°W)
Time: 19:46:10
(UTC+00:00)

Transit 2A Rocket - All Passes

Search period start: 28 February 2021 00:00
Search period end: 10 March 2021 00:00
Orbit: 594 x 909 km, 66.7° (Epoch: 28 February)

Date Brightness Start Highest point End Pass type
(mag) Time Alt. Az. Time Alt. Az. Time Alt. Az.
28 Feb - 09:47:29 10° SSE 09:50:57 18° ESE 09:54:14 10° ENE night (unlit)
28 Feb - 11:28:16 10° SW 11:33:13 43° WNW 11:37:47 10° N visible
28 Feb - 20:15:47 10° NNW 20:19:56 45° ENE 20:24:13 10° SE daylight
28 Feb - 22:00:13 10° W 22:02:03 12° WSW 22:03:54 10° SW daylight
01 Mar - 10:45:20 10° SSW 10:50:36 82° WNW 10:55:25 10° NNE visible
01 Mar - 19:33:46 10° N 19:37:14 23° ENE 19:40:46 10° ESE daylight
01 Mar - 21:16:03 10° NW 21:19:38 25° WSW 21:23:22 10° SSW daylight
02 Mar - 10:02:57 10° S 10:08:03 51° ESE 10:12:43 10° NE night (unlit)
02 Mar - 11:47:39 10° W 11:50:45 16° NW 11:53:44 10° NNW visible
02 Mar - 18:52:35 10° NNE 18:54:24 12° NE 18:56:13 10° ENE daylight
02 Mar - 20:32:56 10° NW 20:37:10 53° WSW 20:41:35 10° S daylight
03 Mar - 09:21:12 10° SSE 09:25:33 27° ESE 09:29:37 10° NE night (unlit)
03 Mar - 11:03:33 10° WSW 11:07:58 29° WNW 11:12:06 10° N visible
03 Mar - 19:50:18 10° NNW 19:54:38 73° ENE 19:59:08 10° SSE daylight
04 Mar - 08:40:32 10° SE 08:43:07 14° ESE 08:45:36 10° ENE night (unlit)
04 Mar - 10:20:14 10° SW 10:25:18 54° WNW 10:29:58 10° NNE night (unlit)
04 Mar - 19:08:01 10° N 19:12:00 35° ENE 19:16:07 10° SE daylight
04 Mar - 20:51:28 10° WNW 20:54:13 16° WSW 20:57:02 10° SSW daylight
05 Mar - 09:37:29 10° SSW 09:42:43 79° ESE 09:47:29 10° NNE night (unlit)
05 Mar - 11:24:28 10° WNW 11:25:38 11° NW 11:26:47 10° NW visible
05 Mar - 18:26:11 10° N 18:29:15 18° NE 18:32:23 10° E daylight
05 Mar - 20:07:52 10° NW 20:11:46 33° WSW 20:15:52 10° S daylight
06 Mar - 08:55:19 10° S 09:00:11 40° ESE 09:04:40 10° NE night (unlit)
06 Mar - 10:39:08 10° WSW 10:42:46 20° WNW 10:46:13 10° N night (unlit)
06 Mar - 19:24:57 10° NNW 19:29:16 70° WSW 19:33:49 10° SSE daylight
07 Mar - 08:13:51 10° SSE 08:17:42 21° ESE 08:21:20 10° ENE night (unlit)
07 Mar - 09:55:22 10° SW 10:00:02 35° WNW 10:04:22 10° N night (unlit)
07 Mar - 18:42:26 10° NNW 18:46:42 56° ENE 18:51:10 10° SE daylight
08 Mar - 07:34:25 10° ESE 07:35:18 10° ESE 07:36:10 10° E night (unlit)
08 Mar - 09:12:15 10° SSW 09:17:24 68° WNW 09:22:06 10° NNE night (unlit)
08 Mar - 18:00:17 10° N 18:04:02 28° ENE 18:07:54 10° ESE daylight
08 Mar - 19:43:03 10° WNW 19:46:21 21° WSW 19:49:48 10° SSW daylight
09 Mar - 08:29:43 10° SSW 08:34:50 62° ESE 08:39:31 10° NNE night (unlit)
09 Mar - 10:15:17 10° W 10:17:37 13° NW 10:19:54 10° NNW night (unlit)
09 Mar - 17:18:44 10° NNE 17:21:15 15° NE 17:23:49 10° E daylight
09 Mar - 18:59:46 10° NW 19:03:54 43° WSW 19:08:14 10° S daylight
